EW4055 Jesi IT current weather conditions

sailwx.info

Dewpoint 13.8° C

Last reported at 2020-Jul-14 07:00 UTC.
Time now 2020-Jul-14 07:42 UTC

Location: N 43°31' E 013°12'.
View on Google Maps.

See reports from other nearby stations

  
Tides and Currents Weather Stations Pressure Air Temp Water Temp Dewpoint Dewpoint Depression Visibility Wind Speed Wind Dir Waves Ship Positions
date/time (UTC)wind fromknots sea level pressurealtimeterstation pressurevisibilityair tempwater tempwave heightnotes
2020-Jul-14 07:00
2020-Jul-14 06:55
2020-Jul-14 06:50
2020-Jul-14 06:45
2020-Jul-14 06:40
2020-Jul-14 06:35
2020-Jul-14 06:30
2020-Jul-14 06:25
2020-Jul-14 06:20
2020-Jul-14 06:15
2020-Jul-14 06:10
2020-Jul-14 06:05
2020-Jul-14 06:00
2020-Jul-14 05:55
2020-Jul-14 05:50
2020-Jul-14 05:45
2020-Jul-14 05:40
2020-Jul-14 05:35
2020-Jul-14 05:30
2020-Jul-14 05:25
2020-Jul-14 05:20
2020-Jul-14 05:15 270 3 17.2
2020-Jul-14 05:10 293 3 16.7
2020-Jul-14 05:05 270 2 16.7
2020-Jul-14 05:00 270 2 16.1
2020-Jul-14 04:55 248 1 16.1
2020-Jul-14 04:50 248 1 16.1
2020-Jul-14 04:45 248 1 16.1
2020-Jul-14 04:40 270 1 16.1
2020-Jul-14 04:35 248 1 16.1
2020-Jul-14 04:30 270 1 16.1
2020-Jul-14 04:25 270 1 16.1
2020-Jul-14 04:20 270 1 16.1
2020-Jul-14 04:15 293 1 gusting 2 16.1
2020-Jul-14 04:10 270 1 gusting 2 15.6
2020-Jul-14 04:05 270 1 gusting 1 15.6
2020-Jul-14 04:00 270 2 gusting 3 15.6
2020-Jul-14 03:55 270 3 gusting 3 15.6
2020-Jul-14 03:50 315 3 gusting 4 15.0
2020-Jul-14 03:45 270 3 gusting 3 15.0
2020-Jul-14 03:40 270 2 gusting 3 15.0
2020-Jul-14 03:35 270 2 gusting 3 15.0
2020-Jul-14 03:30 270 2 gusting 2 15.6
2020-Jul-14 03:25 270 1 gusting 3 15.6
2020-Jul-14 03:20 248 1 gusting 3 15.6
2020-Jul-14 03:15 248 0 gusting 2 15.6
2020-Jul-14 03:10 248 0 gusting 0 15.6
2020-Jul-14 03:05 270 1 gusting 1 15.6
2020-Jul-14 03:00 293 1 gusting 1 15.6
2020-Jul-14 02:55 045 1 gusting 2 15.6
2020-Jul-14 02:50 248 1 gusting 2 16.1
2020-Jul-14 02:45 270 1 gusting 2 16.1
2020-Jul-14 02:40 248 1 gusting 2 16.1
2020-Jul-14 02:35 293 1 gusting 1 16.1
2020-Jul-14 02:30 315 1 gusting 1 16.1
2020-Jul-14 02:25 270 2 gusting 2 16.1
2020-Jul-14 02:20 293 3 gusting 3 16.7
2020-Jul-14 02:15 293 4 gusting 6 16.7
2020-Jul-14 02:10 270 5 gusting 6 16.7
2020-Jul-14 02:05 270 5 gusting 6 16.7
2020-Jul-14 02:00 293 4 gusting 5 16.7
2020-Jul-14 01:55 270 4 gusting 6 16.7
2020-Jul-14 01:50 270 5 gusting 5 16.1
2020-Jul-14 01:45 293 5 gusting 5 16.7
2020-Jul-14 01:40 293 5 gusting 6 16.7
2020-Jul-14 01:35 270 5 gusting 6 16.7
2020-Jul-14 01:30 270 5 gusting 6 16.7
2020-Jul-14 01:25 270 5 gusting 6 16.7
2020-Jul-14 01:20 270 4 gusting 6 16.7
2020-Jul-14 01:15 270 3 gusting 5 16.7
2020-Jul-14 01:10 315 3 gusting 5 16.7
2020-Jul-14 01:05 270 3 gusting 5 16.7
2020-Jul-14 01:00 293 3 gusting 3 16.7
2020-Jul-14 00:55 293 3 gusting 4 16.7
2020-Jul-14 00:50 270 3 gusting 3 17.2
2020-Jul-14 00:45 270 2 gusting 3 17.2
2020-Jul-14 00:40 270 2 gusting 2 17.2
2020-Jul-14 00:35 293 2 gusting 3 17.2
2020-Jul-14 00:30 315 3 gusting 4 17.2
2020-Jul-14 00:25 270 3 gusting 3 17.2
2020-Jul-14 00:20 293 3 gusting 4 17.2
2020-Jul-14 00:15 293 3 gusting 4 17.2
2020-Jul-14 00:10 315 3 gusting 4 17.2
2020-Jul-14 00:05 293 4 gusting 4 17.2
2020-Jul-14 00:00 270 3 gusting 5 17.2
2020-Jul-13 23:55 270 3 gusting 4 16.7
2020-Jul-13 23:52 293 2 gusting 3 17.2
2020-Jul-13 23:40 270 3 gusting 3 17.2
2020-Jul-13 23:35 270 3 gusting 3 17.2
2020-Jul-13 23:30 270 3 gusting 4 17.2
2020-Jul-13 23:25 293 3 gusting 5 17.2
2020-Jul-13 23:20 270 3 gusting 5 17.2
2020-Jul-13 23:15 270 3 gusting 4 17.8
2020-Jul-13 23:10 293 3 gusting 4 17.8
2020-Jul-13 23:05 270 3 gusting 4 17.8
2020-Jul-13 23:00 293 3 gusting 3 17.8
2020-Jul-13 22:55 270 3 gusting 4 17.8
2020-Jul-13 22:50 270 3 gusting 3 17.8
2020-Jul-13 22:45 293 3 gusting 5 17.8
2020-Jul-13 22:40 270 3 gusting 5 17.8
2020-Jul-13 22:35 293 3 gusting 5 17.8
2020-Jul-13 22:30 293 3 gusting 4 17.8
2020-Jul-13 22:25 270 2 gusting 5 17.8
2020-Jul-13 22:20 270 2 gusting 2 17.8
2020-Jul-13 22:15 270 3 gusting 3 17.8
2020-Jul-13 22:10 270 4 gusting 4 17.8
2020-Jul-13 22:05 270 4 gusting 5 17.8
2020-Jul-13 22:03 293 4 gusting 4 17.8
2020-Jul-13 21:53 293 4 gusting 5 17.8
2020-Jul-13 21:45 270 4 gusting 5 17.8
2020-Jul-13 21:40 293 3 gusting 4 17.8
2020-Jul-13 21:35 270 3 gusting 4 17.8
2020-Jul-13 21:30 270 3 gusting 4 17.8
2020-Jul-13 21:25 270 2 gusting 3 17.8
2020-Jul-13 21:20 270 2 gusting 3 17.8
2020-Jul-13 21:15 248 1 gusting 3 18.3
2020-Jul-13 21:10 270 1 gusting 1 18.3
2020-Jul-13 21:05 270 2 gusting 3 18.3
2020-Jul-13 21:00 270 2 gusting 3 18.9
2020-Jul-13 20:55 293 2 gusting 3 18.9
2020-Jul-13 20:50 293 2 gusting 3 18.9
2020-Jul-13 20:45 315 1 gusting 2 18.9
2020-Jul-13 20:40 270 1 gusting 2 18.9
2020-Jul-13 20:35 293 1 gusting 2 18.9
2020-Jul-13 20:30 293 1 gusting 2 19.4
2020-Jul-13 20:25 293 1 gusting 2 19.4
2020-Jul-13 20:20 270 0 gusting 1 19.4
2020-Jul-13 20:15 315 0 gusting 1 19.4
2020-Jul-13 20:10 315 0 gusting 1 19.4
2020-Jul-13 20:05 315 1 gusting 2 19.4
2020-Jul-13 20:00 315 1 gusting 2 19.4
2020-Jul-13 19:55 293 1 gusting 2 19.4
2020-Jul-13 19:50 315 1 gusting 3 19.4
2020-Jul-13 19:45 293 1 gusting 2 19.4
2020-Jul-13 19:40 338 1 gusting 2 19.4
2020-Jul-13 19:35 315 1 gusting 1 20.0
2020-Jul-13 19:30 270 1 gusting 2 20.0
2020-Jul-13 19:25 315 1 gusting 3 20.0
2020-Jul-13 19:20 315 2 gusting 2 20.0
2020-Jul-13 19:15 315 2 gusting 4 20.0
2020-Jul-13 19:10 315 2 gusting 3 20.0
2020-Jul-13 19:05 315 2 gusting 3 20.0
2020-Jul-13 19:00 293 2 gusting 3 20.0
2020-Jul-13 18:55 023 1 gusting 2 20.0
2020-Jul-13 18:50 023 1 gusting 3 20.6
2020-Jul-13 18:45 338 2 gusting 2 20.6
2020-Jul-13 18:40 20.6
2020-Jul-13 18:35 338 2 gusting 3 20.6
2020-Jul-13 18:30 338 2 gusting 3 21.1
2020-Jul-13 18:25 338 2 gusting 5 21.1
2020-Jul-13 18:20 315 2 gusting 4 21.1
2020-Jul-13 18:15 023 3 gusting 3 21.1
2020-Jul-13 18:10 315 3 gusting 6 21.1
2020-Jul-13 18:05 315 3 gusting 4 21.7
2020-Jul-13 18:00 315 4 gusting 6 21.7
2020-Jul-13 17:55 338 4 gusting 6 21.7
2020-Jul-13 17:50 338 4 gusting 7 21.7
2020-Jul-13 17:45 315 3 gusting 6 21.7
2020-Jul-13 17:40 22.2
2020-Jul-13 17:35 22.2
2020-Jul-13 17:30 22.2
2020-Jul-13 17:25 045 4 gusting 6 22.2
2020-Jul-13 17:20 023 5 gusting 5 22.2
2020-Jul-13 17:15 068 5 gusting 8 22.2
2020-Jul-13 17:10 22.8
2020-Jul-13 17:05 023 4 gusting 6 22.8
2020-Jul-13 17:00 045 4 gusting 6 22.8
2020-Jul-13 16:55 023 4 gusting 6 22.8
2020-Jul-13 16:50 023 3 gusting 6 22.8
2020-Jul-13 16:45 045 3 gusting 3 22.8
2020-Jul-13 16:40 068 3 gusting 5 22.8
2020-Jul-13 16:35 045 4 gusting 5 22.8
2020-Jul-13 16:30 22.8
2020-Jul-13 16:25 045 3 gusting 4 22.8
2020-Jul-13 16:20 023 3 gusting 6 23.3
2020-Jul-13 16:15 315 3 gusting 6 23.3
2020-Jul-13 16:10 23.3
2020-Jul-13 16:05 023 4 gusting 6 23.3
2020-Jul-13 16:00 315 4 gusting 6 23.3
2020-Jul-13 15:55 23.3
2020-Jul-13 15:50 315 3 gusting 4 23.3
2020-Jul-13 15:45 338 4 gusting 4 23.3
2020-Jul-13 15:40 023 4 gusting 8 23.3
2020-Jul-13 15:35 315 4 gusting 9 23.3
2020-Jul-13 15:30 315 4 gusting 6 23.3
2020-Jul-13 15:25 23.9
2020-Jul-13 15:20 23.3
2020-Jul-13 15:15 23.3
2020-Jul-13 15:10 090 4 gusting 8 23.9
2020-Jul-13 15:05 315 4 gusting 6 23.9
2020-Jul-13 15:00 315 4 gusting 7 23.9
2020-Jul-13 14:55 090 4 gusting 9 23.9
2020-Jul-13 14:50 023 4 gusting 6 23.9
2020-Jul-13 14:45 338 4 gusting 9 23.3
2020-Jul-13 14:40 23.3
2020-Jul-13 14:35 023 5 gusting 7 23.3
2020-Jul-13 14:30 068 5 gusting 6 23.3
2020-Jul-13 14:25 068 6 gusting 9 23.3
2020-Jul-13 14:20 023 5 gusting 8 23.3
2020-Jul-13 14:15 068 4 gusting 8 23.3
2020-Jul-13 14:10 045 4 gusting 7 23.9
2020-Jul-13 14:05 023 3 gusting 7 23.9
2020-Jul-13 14:00 045 4 gusting 6 23.9
2020-Jul-13 13:55 023 5 gusting 6 23.9
2020-Jul-13 13:50 23.9
2020-Jul-13 13:45 23.9
2020-Jul-13 13:40 023 5 gusting 7 23.9
2020-Jul-13 13:35 338 6 gusting 7 23.9
2020-Jul-13 13:30 338 5 gusting 7 23.9
2020-Jul-13 13:25 23.9
2020-Jul-13 13:20 315 4 gusting 6 23.9
2020-Jul-13 13:15 23.9
2020-Jul-13 13:10 338 5 gusting 6 24.4
2020-Jul-13 13:05 023 5 gusting 8 23.9
2020-Jul-13 13:00 24.4
2020-Jul-13 12:55 315 5 gusting 7 23.9
2020-Jul-13 12:50 315 5 gusting 7 24.4
2020-Jul-13 12:45 24.4
2020-Jul-13 12:40 045 4 gusting 6 24.4
2020-Jul-13 12:36 315 4 gusting 6 24.4
2020-Jul-13 12:30 023 4 gusting 5 24.4
2020-Jul-13 12:25 338 5 gusting 7 24.4
2020-Jul-13 12:20 24.4
2020-Jul-13 12:15 338 4 gusting 6 24.4
2020-Jul-13 12:10 068 5 gusting 6 24.4
2020-Jul-13 12:05 338 4 gusting 7 24.4
2020-Jul-13 12:00 23.9
2020-Jul-13 11:55 045 4 gusting 6 23.9
2020-Jul-13 11:50 338 3 gusting 4 24.4
2020-Jul-13 11:45 068 5 gusting 6 23.9
2020-Jul-13 11:40 023 5 gusting 6 23.9
2020-Jul-13 11:35 23.9
2020-Jul-13 11:30 023 5 gusting 8 23.9
2020-Jul-13 11:25 338 4 gusting 6 23.9
2020-Jul-13 11:20 090 5 gusting 7 23.9
2020-Jul-13 11:15 23.9
2020-Jul-13 11:10 23.9
2020-Jul-13 11:05 315 6 gusting 6 23.9
2020-Jul-13 11:00 338 6 gusting 9 23.9
2020-Jul-13 10:55 045 6 gusting 7 23.9
2020-Jul-13 10:50 045 5 gusting 9 23.9
2020-Jul-13 10:45 338 6 gusting 8 23.9
2020-Jul-13 10:40 315 6 gusting 6 23.3
2020-Jul-13 10:35 315 6 gusting 9 23.3
2020-Jul-13 10:30 23.9
2020-Jul-13 10:25 270 6 gusting 11 23.3
2020-Jul-13 10:20 23.9
2020-Jul-13 10:15 23.3
2020-Jul-13 10:10 090 6 gusting 10 23.3
2020-Jul-13 10:05 023 6 gusting 8 23.9
2020-Jul-13 10:00 23.9
2020-Jul-13 09:55 338 5 gusting 6 23.9
2020-Jul-13 09:50 045 5 gusting 10 23.3
2020-Jul-13 09:45 338 5 gusting 6 23.3
2020-Jul-13 09:40 23.3
2020-Jul-13 09:35 23.3
2020-Jul-13 09:30 338 4 gusting 8 23.3
2020-Jul-13 09:25 23.3
2020-Jul-13 09:20 315 4 gusting 7 23.3
2020-Jul-13 09:15 315 4 gusting 6 23.3
2020-Jul-13 09:10 270 4 gusting 6 22.8
2020-Jul-13 09:05 315 5 gusting 6 23.3
2020-Jul-13 09:00 315 5 gusting 7 22.8
2020-Jul-13 08:55 270 5 gusting 8 22.8
2020-Jul-13 08:50 315 4 gusting 5 22.8
2020-Jul-13 08:45 315 4 gusting 7 22.8
2020-Jul-13 08:40 315 5 gusting 7 22.8
2020-Jul-13 08:35 315 5 gusting 6 22.8
2020-Jul-13 08:30 338 4 gusting 8 22.8
2020-Jul-13 08:25 22.8
2020-Jul-13 08:20 315 4 gusting 6 22.2
2020-Jul-13 08:15 315 3 gusting 7 22.8
2020-Jul-13 08:10 315 2 gusting 2 22.8
2020-Jul-13 08:05 22.8
2020-Jul-13 08:00 338 3 gusting 3 22.2
2020-Jul-13 07:55 023 3 gusting 6 22.2
2020-Jul-13 07:50 22.2
2020-Jul-13 07:45 180 3 gusting 7 22.2
2020-Jul-13 07:40 22.2
2020-Jul-13 07:35 338 4 gusting 6 22.2
2020-Jul-13 07:30 023 4 gusting 6 21.7
2020-Jul-13 07:25 21.7
2020-Jul-13 07:20 338 3 gusting 6 21.7
2020-Jul-13 07:15 21.7
2020-Jul-13 07:10 21.7
2020-Jul-13 07:05 338 2 gusting 5 21.7
2020-Jul-13 07:00 338 3 gusting 5 21.7
2020-Jul-13 06:55 315 3 gusting 6 21.1
2020-Jul-13 06:50 315 3 gusting 5 21.1
2020-Jul-13 06:45 315 2 gusting 4 20.6
2020-Jul-13 06:40 20.6
2020-Jul-13 06:35 338 3 gusting 3 20.6
2020-Jul-13 06:30 338 2 gusting 4 20.0
2020-Jul-13 06:25 338 1 gusting 4 20.0
2020-Jul-13 06:20 270 1 gusting 3 20.0
2020-Jul-13 06:15 315 1 gusting 3 20.0
2020-Jul-13 06:10 19.4
2020-Jul-13 06:05 338 1 gusting 1 19.4
2020-Jul-13 06:00 338 2 gusting 5 19.4
2020-Jul-13 05:55 135 2 gusting 4 19.4
2020-Jul-13 05:50 293 2 gusting 3 18.9
2020-Jul-13 05:45 293 2 gusting 3 18.9
2020-Jul-13 05:40 338 1 gusting 3 18.9
2020-Jul-13 05:35 270 1 gusting 2 18.9
2020-Jul-13 05:30 315 2 gusting 2 18.9
2020-Jul-13 05:25 270 2 gusting 6 18.3
2020-Jul-13 05:20 270 1 gusting 6 18.3
2020-Jul-13 05:15 315 0 gusting 2 18.3
2020-Jul-13 05:10 113 1 gusting 2 18.3
2020-Jul-13 05:05 248 1 gusting 3 17.8
2020-Jul-13 05:00 315 1 gusting 3 17.8
2020-Jul-13 04:55 270 1 gusting 3 17.8
2020-Jul-13 04:50 293 1 gusting 2 17.8
2020-Jul-13 04:45 315 2 gusting 3 17.8
2020-Jul-13 04:40 270 3 gusting 3 17.8
2020-Jul-13 04:35 270 3 gusting 5 17.2
2020-Jul-13 04:30 270 3 gusting 5 17.2
2020-Jul-13 04:25 270 3 gusting 4 16.7
2020-Jul-13 04:20 293 4 gusting 4 16.7
2020-Jul-13 04:15 315 4 gusting 5 16.7
2020-Jul-13 04:10 270 3 gusting 5 16.7
2020-Jul-13 04:05 270 4 gusting 6 16.7
2020-Jul-13 04:00 270 4 gusting 6 16.7
2020-Jul-13 03:55 315 3 gusting 4 16.7
2020-Jul-13 03:50 270 2 gusting 3 16.7
2020-Jul-13 03:45 248 3 gusting 2 16.7
2020-Jul-13 03:40 270 3 gusting 5 16.7
2020-Jul-13 03:35 293 3 gusting 5 16.7
2020-Jul-13 03:30 315 3 gusting 5 16.7
2020-Jul-13 03:25 293 3 gusting 4 16.7
2020-Jul-13 03:20 293 4 gusting 5 16.7
2020-Jul-13 03:15 293 3 gusting 5 16.7
2020-Jul-13 03:10 293 3 gusting 5 16.7
2020-Jul-13 03:05 293 2 gusting 2 16.7
2020-Jul-13 03:00 270 3 gusting 3 16.7
2020-Jul-13 02:55 270 4 gusting 5 16.7
2020-Jul-13 02:50 293 4 gusting 5 16.7
2020-Jul-13 02:45 293 4 gusting 5 16.7
2020-Jul-13 02:40 293 4 gusting 5 17.2
2020-Jul-13 02:35 315 4 gusting 6 17.2
2020-Jul-13 02:30 293 3 gusting 5 17.2
2020-Jul-13 02:25 293 3 gusting 5 17.2
2020-Jul-13 02:20 293 3 gusting 5 17.2
2020-Jul-13 02:15 293 4 gusting 5 17.2
2020-Jul-13 02:10 17.2
2020-Jul-13 02:05 270 4 gusting 4 17.2
2020-Jul-13 02:00 270 4 gusting 5 17.2
2020-Jul-13 01:55 293 5 gusting 6 17.2
2020-Jul-13 01:50 293 4 gusting 6 17.2
2020-Jul-13 01:45 293 4 gusting 5 16.7
2020-Jul-13 01:40 293 3 gusting 5 16.7
2020-Jul-13 01:35 315 3 gusting 4 16.7
2020-Jul-13 01:30 293 3 gusting 4 16.7
2020-Jul-13 01:25 270 4 gusting 5 17.2
2020-Jul-13 01:20 270 4 gusting 6 17.2
2020-Jul-13 01:15 270 4 gusting 5 17.2
2020-Jul-13 01:10 293 4 gusting 5 17.2
2020-Jul-13 01:05 293 4 gusting 4 17.8
2020-Jul-13 01:00 293 4 gusting 5 17.8
2020-Jul-13 00:55 293 4 gusting 4 17.8
2020-Jul-13 00:50 113 4 gusting 5 17.8
2020-Jul-13 00:45 315 4 gusting 5 17.8
2020-Jul-13 00:40 293 4 gusting 6 17.8
2020-Jul-13 00:35 293 3 gusting 5 17.8
2020-Jul-13 00:30 293 3 gusting 4 17.8
2020-Jul-13 00:20 248 2 gusting 4 18.3
2020-Jul-13 00:15 270 2 gusting 3 18.3
2020-Jul-13 00:10 270 2 gusting 3 18.9
2020-Jul-13 00:05 315 2 gusting 4 18.9
2020-Jul-13 00:00 293 3 gusting 4 18.9
2020-Jul-12 23:50 315 4 gusting 6 19.4
2020-Jul-12 23:40 315 2 gusting 4 18.9
2020-Jul-12 23:30 293 2 gusting 2 19.4
2020-Jul-12 23:25 293 2 gusting 4 19.4
2020-Jul-12 23:20 315 2 gusting 3 19.4
2020-Jul-12 23:15 315 2 gusting 3 19.4
2020-Jul-12 23:10 315 2 gusting 3 19.4
2020-Jul-12 23:05 338 2 gusting 3 20.0
2020-Jul-12 23:00 315 2 gusting 3 20.0
2020-Jul-12 22:50 338 2 gusting 5 20.0
2020-Jul-12 22:40 315 2 gusting 4 20.0
2020-Jul-12 22:35 315 2 gusting 5 20.0
2020-Jul-12 22:30 023 2 gusting 5 20.6
2020-Jul-12 22:25 023 2 gusting 5 20.6
2020-Jul-12 22:20 338 2 gusting 2 20.6
2020-Jul-12 22:15 338 2 gusting 5 20.6
2020-Jul-12 22:10 338 2 gusting 5 20.6
2020-Jul-12 22:05 338 2 gusting 3 20.6
2020-Jul-12 22:00 315 2 gusting 4 20.6
2020-Jul-12 21:50 315 2 gusting 3 20.6
2020-Jul-12 21:40 315 2 gusting 3 20.6
2020-Jul-12 21:35 315 2 gusting 3 20.6
2020-Jul-12 21:30 338 2 gusting 3 20.6
2020-Jul-12 21:25 023 2 gusting 3 20.6
2020-Jul-12 21:20 20.6
2020-Jul-12 21:15 338 2 gusting 5 20.6
2020-Jul-12 21:10 20.6
2020-Jul-12 21:00 20.6
2020-Jul-12 20:55 023 2 gusting 3 20.6
2020-Jul-12 20:50 023 2 gusting 2 20.6
2020-Jul-12 20:40 20.6
2020-Jul-12 20:35 20.6
2020-Jul-12 20:30 023 1 gusting 3 20.6
2020-Jul-12 20:20 023 2 gusting 5 21.1
2020-Jul-12 20:15 023 2 gusting 4 21.1
2020-Jul-12 20:10 21.1
2020-Jul-12 20:05 338 1 gusting 3 21.1
2020-Jul-12 19:55 045 1 gusting 3 21.1
2020-Jul-12 19:45 023 1 gusting 3 21.7
2020-Jul-12 19:40 21.7
2020-Jul-12 19:35 045 1 gusting 2 21.7
2020-Jul-12 19:30 21.7
2020-Jul-12 19:25 023 2 gusting 3 21.7
2020-Jul-12 19:20 023 2 gusting 3 21.7
2020-Jul-12 19:10 023 1 gusting 4 21.7
2020-Jul-12 19:05 068 2 gusting 2 21.7
2020-Jul-12 19:00 068 2 gusting 4 22.2
2020-Jul-12 18:55 023 2 gusting 5 22.2
2020-Jul-12 18:45 068 2 gusting 2 22.8
2020-Jul-12 18:40 068 2 gusting 3 22.8
2020-Jul-12 18:30 22.8
2020-Jul-12 18:25 068 2 gusting 5 22.8
2020-Jul-12 18:20 338 2 gusting 4 23.3
2020-Jul-12 18:15 203 4 gusting 5 23.3
2020-Jul-12 18:10 023 4 gusting 6 23.3
2020-Jul-12 18:05 338 3 gusting 6 23.3
2020-Jul-12 18:00 045 3 gusting 6 23.3
2020-Jul-12 17:55 023 3 gusting 6 23.3
2020-Jul-12 17:50 068 3 gusting 6 23.3
2020-Jul-12 17:40 23.9
2020-Jul-12 17:35 315 3 gusting 6 23.9
2020-Jul-12 17:30 203 3 gusting 4 23.9
2020-Jul-12 17:25 068 3 gusting 5 23.9
2020-Jul-12 17:20 315 3 gusting 6 23.9
2020-Jul-12 17:15 23.9
2020-Jul-12 17:10 045 4 gusting 4 23.9
2020-Jul-12 17:05 315 3 gusting 6 23.9
2020-Jul-12 17:00 045 3 gusting 6 23.9
2020-Jul-12 16:55 23.9
2020-Jul-12 16:45 090 3 gusting 6 23.9
2020-Jul-12 16:40 045 5 gusting 6 23.9
2020-Jul-12 16:30 023 5 gusting 8 23.9
2020-Jul-12 16:25 23.9
2020-Jul-12 16:20 090 5 gusting 8 23.9
2020-Jul-12 16:15 023 5 gusting 7 23.9
2020-Jul-12 16:10 023 5 gusting 7 24.4
2020-Jul-12 16:00 315 4 gusting 7 24.4
2020-Jul-12 15:55 24.4
2020-Jul-12 15:50 023 5 gusting 9 24.4
2020-Jul-12 15:45 338 5 gusting 9 25.0
2020-Jul-12 15:40 338 5 gusting 8 25.0
2020-Jul-12 15:30 045 6 gusting 7 25.0
2020-Jul-12 15:25 023 5 gusting 10 25.0
2020-Jul-12 15:15 25.0
2020-Jul-12 15:10 023 4 gusting 6 25.0
2020-Jul-12 15:05 25.0
2020-Jul-12 15:00 315 5 gusting 6 25.0
2020-Jul-12 14:55 315 4 gusting 7 25.0
2020-Jul-12 14:50 338 5 gusting 7 25.0
2020-Jul-12 14:40 25.6
2020-Jul-12 14:30 315 5 gusting 6 25.6
2020-Jul-12 14:25 25.6
2020-Jul-12 14:15 023 5 gusting 9 25.0
2020-Jul-12 14:10 338 6 gusting 8 25.0
2020-Jul-12 14:05 315 5 gusting 7 25.6
2020-Jul-12 14:00 338 6 gusting 9 25.0
2020-Jul-12 13:50 045 6 gusting 6 25.6
2020-Jul-12 13:45 023 6 gusting 6 25.6
2020-Jul-12 13:40 338 5 gusting 10 25.6
2020-Jul-12 13:35 045 5 gusting 10 25.6
2020-Jul-12 13:25 023 5 gusting 11 25.6
2020-Jul-12 13:20 338 4 gusting 7 25.6
2020-Jul-12 13:15 315 4 gusting 7 25.6
2020-Jul-12 13:10 023 4 gusting 8 25.6
2020-Jul-12 13:00 315 5 gusting 6 25.6
2020-Jul-12 12:55 023 5 gusting 8 25.6
2020-Jul-12 12:45 338 4 gusting 4 25.6
2020-Jul-12 12:40 25.6
2020-Jul-12 12:30 023 4 gusting 7 26.1
2020-Jul-12 12:20 068 5 gusting 6 25.6
2020-Jul-12 12:10 25.6
2020-Jul-12 12:05 023 3 gusting 4 26.1
2020-Jul-12 12:00 023 4 gusting 7 26.1
2020-Jul-12 11:50 25.6
2020-Jul-12 11:45 270 4 gusting 6 25.6
2020-Jul-12 11:35 315 4 gusting 8 25.6
2020-Jul-12 11:30 023 3 gusting 10 25.0
2020-Jul-12 11:25 338 3 gusting 3 25.0
2020-Jul-12 11:20 293 3 gusting 6 25.0
2020-Jul-12 11:10 24.4
2020-Jul-12 11:05 315 3 gusting 6 24.4
2020-Jul-12 10:55 293 3 gusting 5 23.9
2020-Jul-12 10:50 338 4 gusting 8 23.9
2020-Jul-12 10:45 338 4 gusting 8 24.4
2020-Jul-12 10:40 24.4
2020-Jul-12 10:35 270 4 gusting 7 24.4
2020-Jul-12 10:25 338 4 gusting 3 24.4
2020-Jul-12 10:15 338 4 gusting 9 24.4
2020-Jul-12 10:10 338 3 gusting 9 25.0
2020-Jul-12 10:05 25.0
2020-Jul-12 10:00 270 3 gusting 6 25.0
2020-Jul-12 09:55 293 3 gusting 6 25.0
2020-Jul-12 09:50 090 3 gusting 6 25.0
2020-Jul-12 09:45 338 3 gusting 7 24.4
2020-Jul-12 09:35 315 3 gusting 5 24.4
2020-Jul-12 09:30 315 4 gusting 7 23.9
2020-Jul-12 09:25 338 4 gusting 7 23.9
2020-Jul-12 09:20 315 4 gusting 6 23.9
2020-Jul-12 09:10 315 3 gusting 6 23.3
2020-Jul-12 09:05 23.3
2020-Jul-12 08:55 293 4 gusting 6 23.3
2020-Jul-12 08:45 293 3 gusting 7 23.3
2020-Jul-12 08:40 315 4 gusting 5 23.3
2020-Jul-12 08:35 270 4 gusting 6 23.3
2020-Jul-12 08:30 315 4 gusting 5 22.8
2020-Jul-12 08:25 315 4 gusting 6 22.8
2020-Jul-12 08:20 270 3 gusting 4 23.3
2020-Jul-12 08:15 293 4 gusting 4 22.8
2020-Jul-12 08:10 270 4 gusting 5 22.8
2020-Jul-12 08:00 180 4 gusting 6 22.8
2020-Jul-12 07:55 315 4 gusting 6 22.8
2020-Jul-12 07:45 338 4 gusting 6 22.8
2020-Jul-12 07:40 293 4 gusting 5 22.8
2020-Jul-12 07:35 270 4 gusting 6 22.2
2020-Jul-12 07:30 338 4 gusting 6 22.2
2020-Jul-12 07:20 293 3 gusting 5 22.2
2020-Jul-12 07:15 270 3 gusting 6 22.2
2020-Jul-12 07:05 338 2 gusting 6 22.2